Weather History for Kalamazoo, MI

Change the Weather History Date:

Saturday, July 6, 2013

  Actual Average Record
Temperature  
Mean Temperature 76 °F 72 °F  
Max Temperature 82 °F 83 °F 104 °F (2012)
Min Temperature 69 °F 62 °F 42 °F (2001)
Degree Days  
Heating Degree Days 0 0  
Month to date heating degree days 2 0  
Since 1 June heating degree days 41 48  
Since 1 July heating degree days 2 0  
Cooling Degree Days 11 8  
Month to date cooling degree days 34 45  
Year to date cooling degree days 260 231  
Since 1 June cooling degree days 180 190  
Growing Degree Days 26 (Base 50)    
Moisture  
Dew Point 67 °F    
Average Humidity 76    
Maximum Humidity 90    
Minimum Humidity 62    
Precipitation  
Precipitation 0.00 in 0.10 in 0.99 in (2004)
Month to date precipitation 0.70 0.59  
Year to date precipitation 22.05 16.61  
Sea Level Pressure  
Sea Level Pressure 30.06 in    
Wind  
Wind Speed 4 mph (South)    
Max Wind Speed 12 mph    
Max Gust Speed 14 mph    
Visibility 10 miles    
Events      
T = Trace of Precipitation, MM = Missing Value Source: NWS Daily Summary

Daily Weather History Graph

Daily Weather History Graph

Search for Another Location

Airport:

Trip Planner

Search our weather history database for the weather conditions in past years. The results will help you decide how hot, cold, wet, or windy it might be!

Date:

Astronomy

Jul. 06, 2013 Rise Set
Actual Time 6:12 AM EDT 9:21 PM EDT
Civil Twilight 5:38 AM EDT 9:55 PM EDT
Nautical Twilight 4:54 AM EDT 10:38 PM EDT
Astronomical Twilight 4:02 AM EDT 11:31 PM EDT
Moon 4:59 AM EDT (7/6) 8:00 PM EDT (7/6)
Length of Visible Light 16h 16m
Length of Day
15h 08m
Waning Crescent, 2% of the Moon is Illuminated
Jul 6
Waning Crescent
Jul 8
New
Jul 15
First Quarter
Jul 22
Full
Jul 29
Last Quarter

Hourly Weather History & Observations

Time (EDT) Temp. Heat Index Dew Point Humidity Pressure Visibility Wind Dir Wind Speed Gust Speed Precip Events Conditions
12:53 AM 73.0 °F - 66.9 °F 81% 30.09 in 10.0 mi SSE 3.5 mph - N/A   Scattered Clouds
1:53 AM 72.0 °F - 66.9 °F 84% 30.09 in 10.0 mi South 5.8 mph - N/A   Clear
2:53 AM 70.0 °F - 66.0 °F 87% 30.09 in 10.0 mi South 4.6 mph - N/A   Clear
3:53 AM 71.1 °F - 66.0 °F 84% 30.08 in 10.0 mi South 4.6 mph - N/A   Clear
4:53 AM 71.1 °F - 66.0 °F 84% 30.08 in 10.0 mi South 4.6 mph - N/A   Clear
5:53 AM 70.0 °F - 66.0 °F 87% 30.09 in 10.0 mi SSE 3.5 mph - N/A   Clear
6:53 AM 70.0 °F - 66.0 °F 87% 30.09 in 10.0 mi Calm Calm - N/A   Clear
7:53 AM 72.0 °F - 66.9 °F 84% 30.10 in 10.0 mi South 4.6 mph - N/A   Clear
8:53 AM 73.9 °F - 66.9 °F 79% 30.10 in 10.0 mi SSW 3.5 mph - N/A   Clear
9:53 AM 77.0 °F - 66.9 °F 71% 30.10 in 10.0 mi Calm Calm - N/A   Clear
10:53 AM 77.0 °F - 66.9 °F 71% 30.09 in 10.0 mi SSW 8.1 mph - N/A   Scattered Clouds
11:53 AM 81.0 °F 83.0 °F 66.0 °F 60% 30.09 in 10.0 mi SSW 8.1 mph - N/A   Scattered Clouds
12:53 PM 81.0 °F 83.0 °F 66.0 °F 60% 30.07 in 10.0 mi SSE 3.5 mph - N/A   Scattered Clouds
1:53 PM 80.1 °F 82.3 °F 66.9 °F 64% 30.06 in 10.0 mi South 6.9 mph - N/A   Scattered Clouds
2:53 PM 79.0 °F - 68.0 °F 69% 30.04 in 10.0 mi SSE 4.6 mph - N/A   Scattered Clouds
3:53 PM 81.0 °F 83.3 °F 66.9 °F 62% 30.04 in 10.0 mi South 6.9 mph - N/A   Overcast
4:53 PM 79.0 °F - 66.9 °F 66% 30.04 in 10.0 mi SSE 4.6 mph - N/A   Overcast
5:53 PM 79.0 °F - 66.9 °F 66% 30.02 in 10.0 mi Variable 3.5 mph - N/A   Overcast
6:53 PM 78.1 °F - 66.9 °F 68% 30.00 in 10.0 mi South 5.8 mph - N/A   Scattered Clouds
7:53 PM 77.0 °F - 66.9 °F 71% 30.00 in 10.0 mi WSW 4.6 mph - N/A   Scattered Clouds
8:53 PM 75.9 °F - 68.0 °F 76% 30.00 in 10.0 mi West 4.6 mph - N/A   Partly Cloudy
9:53 PM 73.0 °F - 68.0 °F 84% 30.01 in 10.0 mi Calm Calm - N/A   Clear
10:53 PM 72.0 °F - 68.0 °F 87% 30.03 in 10.0 mi SW 3.5 mph - N/A   Clear
11:53 PM 71.1 °F - 68.0 °F 90% 30.04 in 10.0 mi SW 3.5 mph - N/A   Mostly Cloudy